Location: Ffald-y-Brenin
(52.0833°N, 4.0000°W)
Time: 16:51:24
(UTC+00:00)

Cosmos 1484 Rocket - Pass Details

Date: 18 February 2020
Orbit: 506 x 559 km, 97.4° (Epoch: 06 April)

Event Time Altitude Azimuth Distance (km) Brightness Sun altitude
Rises 06:34:18 0° 2° (N) 2,711 6.3 -8.6°
Reaches altitude 10° 06:36:49 10° 346° (NNW) 1,823 5.3 -8.2°
Maximum altitude 06:39:45 21° 298° (WNW) 1,286 4.1 -7.8°
Drops below altitude 10° 06:42:43 10° 250° (WSW) 1,833 5.0 -7.3°
Sets 06:45:14 0° 233° (SW) 2,729 6.0 -7.0°
